Vorticity
nan nan nan nan nan nan nan nan nan nan nan nan nan nan nan nan nan nan nan nan nan nan nan nan nan nan nan nan nan nan nan nan
nan 7 6 7 7 7 7 8 9 10 9 8 8 8 9 9 6 5 8 9 9 9 8 9 10 8 7 7 7 8 8 nan
nan 5 7 8 7 7 7 8 9 11 9 10 8 8 9 8 7 6 7 7 10 10 11 12 10 11 10 9 9 8 8 nan
nan 5 6 7 7 8 8 8 9 9 9 11 9 10 8 8 7 7 7 8 8 9 11 11 10 11 11 11 10 8 8 nan
nan 7 6 8 8 7 7 8 9 8 9 9 9 10 9 9 8 7 7 9 9 9 9 9 10 11 9 9 9 11 9 nan
nan 8 6 7 8 7 7 8 9 8 9 10 9 9 9 8 7 7 10 9 9 9 9 11 12 10 10 10 9 8 8 nan
nan 6 6 6 6 7 8 9 9 8 9 8 9 8 10 9 8 12 10 9 8 6 9 12 12 10 11 12 12 10 10 nan
nan 3 7 7 5 8 9 9 8 8 9 8 8 8 10 9 10 9 10 10 8 6 9 12 11 10 13 14 14 15 12 nan
nan 6 8 9 5 7 9 9 8 8 9 9 8 10 11 7 9 11 10 8 6 7 11 10 11 12 14 16 16 18 17 nan
nan 5 10 8 6 8 8 9 8 9 10 10 9 8 9 8 9 12 9 9 8 8 10 10 11 11 12 16 15 12 24 nan
nan 6 8 7 8 7 7 9 8 8 10 10 9 8 9 9 9 9 9 10 9 10 9 10 10 12 12 14 12 11 16 nan
nan 9 4 9 9 5 7 6 7 6 8 9 9 9 9 10 10 8 8 9 8 10 11 10 9 9 12 13 10 10 13 nan
nan 10 8 6 5 8 8 7 7 7 6 6 7 9 8 7 8 8 9 9 9 9 11 10 9 9 9 11 12 11 10 nan
nan 6 12 9 6 7 8 12 9 9 7 6 6 7 6 8 6 6 8 8 10 8 9 11 9 9 10 10 10 12 10 nan
nan 7 8 8 9 9 10 15 12 11 10 7 8 7 7 9 9 6 5 7 8 9 8 9 11 9 9 10 10 10 11 nan
nan 9 8 8 11 9 11 8 10 13 10 14 15 10 9 10 13 11 7 5 9 9 7 9 11 11 11 12 12 9 10 nan
nan 8 9 10 10 9 9 8 10 9 9 10 9 11 13 13 12 11 10 9 6 9 9 7 12 6 7 17 19 11 8 nan
nan 9 9 9 9 10 9 8 9 10 9 8 9 10 9 10 11 10 9 9 9 7 9 8 7 3 8 13 16 14 8 nan
nan nan nan nan nan nan nan nan nan nan nan nan nan nan nan nan nan nan nan nan nan nan nan nan nan nan nan nan nan nan nan nan
CAPE
0 0 0 0 0 0 0 0 0 0 0 0 0 0 0 0 0 0 0 0 7 7 1 2 6 6 5 2 2 0 1 0
0 0 0 0 0 0 0 0 0 0 0 0 0 0 0 0 0 0 0 2 0 3 5 2 19 13 13 16 4 0 0 0
0 0 0 0 0 0 0 0 0 0 0 0 0 0 0 0 0 0 1 2 12 12 11 15 22 26 23 17 17 13 5 0
0 0 0 0 0 0 0 0 0 0 0 0 0 0 0 0 0 0 4 11 15 15 10 8 9 9 24 22 16 20 14 4
0 0 0 0 0 0 0 0 0 0 0 0 0 0 1 0 0 3 7 13 14 16 12 8 9 10 9 13 19 18 24 12
0 0 0 0 0 0 0 0 0 0 2 0 2 3 4 3 3 7 7 9 14 12 16 9 10 14 13 15 12 9 11 23
0 0 0 0 0 0 0 0 0 0 0 0 4 3 3 3 1 3 11 10 9 18 18 11 11 13 16 17 15 16 15 10
0 0 0 0 0 0 0 0 0 0 0 0 0 2 5 4 5 4 9 9 10 16 14 13 11 14 13 16 17 16 9 12
0 0 0 0 0 0 0 0 0 0 0 0 1 3 2 2 2 12 10 12 13 18 18 12 11 12 12 10 7 10 4 3
0 0 0 0 0 0 0 0 0 0 0 0 0 2 1 3 0 10 8 10 19 15 16 12 11 10 10 9 8 9 9 6
0 0 0 0 1 0 0 0 0 0 0 0 0 0 2 4 2 8 8 9 13 9 19 12 10 9 11 11 9 7 11 11
0 0 0 0 1 0 0 0 0 0 0 0 0 0 1 3 5 7 10 7 11 7 12 16 10 8 9 11 12 12 11 11
0 0 0 0 0 0 0 1 0 0 0 0 0 0 0 1 0 2 2 3 6 7 5 14 10 6 4 7 10 10 10 9
0 0 0 0 0 0 1 0 0 0 0 0 0 0 0 0 0 0 0 0 1 4 1 5 12 9 6 3 6 10 6 8
1 4 2 0 0 0 0 0 0 0 0 0 0 0 0 0 0 0 0 0 0 0 0 0 3 5 5 7 5 3 6 6
3 2 2 0 0 0 0 0 0 0 0 0 0 0 0 0 0 0 0 0 0 0 0 0 0 1 2 1 3 3 2 1
0 0 0 0 0 0 0 0 0 0 0 0 0 0 0 0 1 1 0 0 0 0 0 0 0 3 7 4 1 2 2 2
0 0 0 0 0 0 0 0 0 0 0 0 0 0 0 0 0 0 0 0 0 0 0 0 0 0 5 2 2 0 0 0
0 0 0 0 0 0 0 0 0 0 0 0 0 0 0 0 0 0 0 0 0 0 0 0 0 1 2 2 1 1 1 0